Location: B?dimalle
(17.1788°N, 80.5377°E)
Time: 12:42:27
(UTC+00:00)

Courier 1B Rocket - Pass Details

Date: 20 December 2025
Orbit: 920 x 1201 km, 28.2° (Epoch: 25 January)

Event Time Altitude Azimuth Distance (km) Brightness Sun altitude
Rises 12:55:36 0° 254° (WSW) 3,944 10.3 -11.2°
Reaches altitude 10° 12:58:20 10° 256° (WSW) 3,020 9.1 -11.8°
Maximum altitude 13:05:51 69° 339° (NNW) 1,254 5.6 -13.5°
Enters shadow 13:11:44 19° 59° (ENE) 2,505 6.5 -14.8°
